Погода в Бриджтауне

Барбадос     13°04′38″N   59°35′24″W
темп.,
°C
ветер,
м/с
пор.,
м/с
влажн.,
%
обл.,
%
осадки,
мм/ч
давл.,
гПа
погр.,
м
27 ноября, сб
сб2723:00+27в3479100 0.1 1012441
02:00+26всв348172 0.2 1011468
05:00+26в448286 0.1 1011470
08:00+27в457735 0.1 1013674
11:00+28в447379 0.1 1014769
14:00+28всв557541 1.8 1011713
17:00+27всв56778 0.0 1011699
20:00+27всв677921 0.0 1012658
28 ноября, вс
вс2823:00+27в787994 0.1 1012689
02:00+27в678094 0.4 1011643
05:00+27в677814 0.5 1011687
08:00+28всв77737 0.6 1013981
11:00+28в787328 0.0 1013992
14:00+28в777432 0.3 1011932
17:00+27в78776 0.1 1011840
20:00+27всв79796 0.2 1013720
29 ноября, пн
пн2923:00+27всв897591 0.4 1012886
02:00+27всв897461 0.5 1011847
05:00+27всв8107424 0.1 1011863
08:00+27всв89759 0.1 1013974
11:00+28в89709 0.2 10131088
14:00+28в8871100 0.3 10111044
17:00+27в677297 0.0 1011835
20:00+27всв78785 0.1 1013746
30 ноября, вт
вт3023:00+27в79785 0.3 1013795
02:00+27в787894 0.3 1012739
05:00+27всв79788 0.1 1012763
08:00+28в897530 0.1 1014986
11:00+28в897434 0.1 10141057
14:00+28в89746 0.1 10111030
17:00+27всв8107999 0.2 1011879
20:00+27всв9118049 0.6 1013847
1 декабря, ср
ср123:00+27всв9118189 0.4 1013852
02:00+27всв9118087 0.8 1012852
05:00+27всв9117999 0.4 1012864
08:00+28всв9117694 0.4 10141049
11:00+28всв9107494 0.1 10141060
14:00+28всв91072100 0.2 10121074
17:00+27всв9107794 0.0 1012989
20:00+27всв91178100 0.1 1013909